Tracking 35275 objects as of 8-Sep-2026
HD Live streaming from Space Station
objects crossing your sky now

STARLINK-5892

Track STARLINK-5892 now!
10-day predictions
STARLINK-5892 is classified as:


NORAD ID: 55954
Int'l Code: 2023-037AS
Launch date: March 17, 2023
Source: United States (US)
Launch site: AIR FORCE WESTERN TEST RANGE (AFWTR)
Your satellite tracking list
Your tracking list is empty




NASA's NSSDC Master Catalog

Two Line Element Set (TLE):
1 55954U 23037AS  26251.20406859  .00000266  00000-0  30130-4 0  9998
2 55954  69.9994 164.2073 0003206 269.1846  90.8946 14.98330483191815
Source of the keplerian elements: AFSPC